www.pogodaiklimat.ru

Погода и климат >> Архив погоды >> Россия >> Красноярский край >> Норильск


АРХИВ ПОГОДЫ в Норильске

Время (UTC), дата Ветер
(напр.,м/с)
 
Видим.   Явления Облачность Т
(С)
Тd
(С)
f
(%)
Тe
(С)
Тes
(С)
Комфортность P
(гПа)
Po
(гПа)
Тmin
(С)
Tmax
(С)
R
(мм)
R24
(мм)
S
(см)
06 9.01 ЮВ 4 10 км 6/0 2000 м
[Ac trans]
-34.7 -37.7 74 -47 -47 опасность
обморожения
1006.1 996.8
09 9.01 ЮВ 4 10 км 6/0 2000 м
[Ac trans]
-33.9 -36.8 75 -46 -46 опасность
обморожения
1006.2 997.0
12 9.01 ЮВ 5 10 км 3/0 2000 м
[Ac trans]
-32.9 -35.8 75 -46 -46 опасность
обморожения
1006.0 996.8 -32.9
15 9.01 ЮВ 3 20 км 3/0 2000 м
[Ac trans]
-34.3 -37.1 76 -45 -45 опасность
обморожения
1005.3 996.0
18 9.01 ЮВ 1 20 км ясно -35.2 -38.0 75 -40 -40 опасность
обморожения
1004.8 995.5
21 9.01 штиль 0 20 км ясно -36.6 -39.4 75 -37 -37 опасность
обморожения
1003.8 994.5
00 10.01 СЗ 2 20 км 3/0
[Ac lent]
-36.1 -39.0 74 -45 -45 опасность
обморожения
1003.1 993.8 -36.7 56
03 10.01 СЗ 1 10 км 3/3 600 м
[Sc]
-32.5 -35.5 74 -37 -37 опасность
обморожения
1001.9 992.7
06 10.01 СЗ 3 50 км 3/0
[Ci fib]
-33.4 -35.6 80 -44 -44 опасность
обморожения
1001.9 992.7
09 10.01 СЗ 5 10 км 3/0
[Ci fib]
-35.4 -37.7 79 -49 -49 опасность
обморожения
1002.8 993.5
12 10.01 СЗ 6-10
{10}
4000 м слаб. снег {метель} 10/0
[Cs]
-36.5 -38.8 79 -52 -52 опасность
обморожения
1004.0 994.7 -30.7 0.0
15 10.01 СЗ 7
{10}
10 км позёмок {снег} 10/0
[Ac und]
-37.1 -39.8 76 -54 -54 опасность
обморожения
1005.6 996.2
18 10.01 СЗ 2 10 км {снег, метель} 10/0
[Ac und]
-38.1 -40.9 75 -47 -47 опасность
обморожения
1007.7 998.3
21 10.01 10 км 10/0
[Ac und]
-38.4 -41.4 73 1009.8 1000.4
00 11.01 В 1 10 км слаб. снег 10/0
[Ac As]
-37.7 -40.5 75 -43 -43 опасность
обморожения
1011.2 1001.8 -38.5 0.3 55
03 11.01 В 3 10 км слаб. снег 10/0
[Ac As Cs]
-37.1 -40.1 73 -48 -48 опасность
обморожения
1013.1 1003.7
06 11.01 В 4 4000 м слаб. снег 10/0
[Ac As]
-37.9 -40.9 73 -51 -51 опасность
обморожения
1014.7 1005.2
09 11.01 В 3 10 км слаб. снег 10/0
[Ac trans Cs]
-38.0 -40.9 74 -49 -49 опасность
обморожения
1016.8 1007.3
12 11.01 В 3 10 км {снег} 6/0
[Cs]
-38.4 -41.4 73 -50 -50 опасность
обморожения
1018.2 1008.7 -37.1 0.4
15 11.01 ЮВ 3 4000 м слаб. снег 10/0
[Cs]
-38.3 -40.9 76 -50 -50 опасность
обморожения
1019.2 1009.7
18 11.01 ЮВ 1 20 км {снег} ясно -38.9 -41.8 74 -44 -44 опасность
обморожения
1019.9 1010.4
21 11.01 ЮВ 1 20 км 6/0 2000 м
[Ac trans]
-39.5 -42.3 74 -45 -45 опасность
обморожения
1021.6 1012.0
00 12.01 ЮВ 1 20 км 3/0 2000 м
[Ac trans]
-40.2 -42.8 76 -45 -45 опасность
обморожения
1022.3 1012.7 -40.4 0.0 55
03 12.01 ЮВ 3 20 км 6/0 2000 м
[Ac trans Ci sp]
-40.3 -43.3 73 -52 -52 опасность
обморожения
1022.2 1012.6
06 12.01 В 4 20 км 3/0 2000 м
[Ac trans Ci sp]
-40.5 -43.3 74 -54 -54 опасность
обморожения
1023.6 1014.0
09 12.01 ЮВ 3 20 км 3/0
[Ci sp]
-41.7 -44.4 75 -54 -54 опасность
обморожения
1025.3 1015.7
12 12.01 ЮВ 6 20 км позёмок 4/0
[Ci ing]
-41.4 -44.4 72 -58 -58 опасность
обморожения
1026.2 1016.5 -40.2
15 12.01 В 6-10
{11}
20 км позёмок ясно -41.1 -43.8 75 -58 -58 опасность
обморожения
1027.9 1018.2
18 12.01 ЮВ 9-11
{12}
10 км позёмок ясно -41.4 -45.0 68 -61 -61 опасность
обморожения
1028.1 1018.4
21 12.01 ЮВ 9-13
{14}
10 км позёмок 4/0 2000 м
[Ac trans]
-39.5 -42.3 74 -59 -59 опасность
обморожения
1027.8 1018.1
00 13.01 В 10-14
{14}
10 км позёмок 6/0 2000 м
[Ac trans]
-38.6 -42.0 70 -58 -58 опасность
обморожения
1025.0 1015.4 -41.7 55
03 13.01 В 13-17
{20}
2000 м метель 4/0 2000 м
[Ac trans]
-35.1 -38.0 75 -56 -56 опасность
обморожения
1021.0 1011.6
06 13.01 В 10-15
{20}
500 м метель ?/? -31.8 -34.8 75 -49 -49 опасность
обморожения
1018.9 1009.6
09 13.01 В 10-15
{15}
500 м метель ?/? -25.5 -28.7 74 -41 -41 опасность
обморожения
1017.3 1008.3
12 13.01 ЮВ 11-16
{17}
500 м метель ?/? -21.6 -24.1 80 -36 -36 опасность
обморожения
1015.7 1006.8 -21.6 2
15 13.01 ЮВ 15-20
{21}
500 м метель ?/? -20.4 -23.0 80 -36 -36 опасность
обморожения
1013.4 1004.6
18 13.01 ЮВ 12-15
{21}
2000 м метель 10/10 600 м
[Sc]
-19.5 -22.1 80 -34 -34 опасность
обморожения
1014.0 1005.1
21 13.01 ЮВ 10-14
{15}
4000 м позёмок 10/10 600 м
[Sc]
-18.8 -22.1 75 -32 -32 опасность
обморожения
1013.2 1004.4
00 14.01 ЮВ 11-16
{17}
4000 м слаб. снег {метель} 10/8 600 м
[Sc Ac As]
-19.8 -23.1 75 -34 -34 опасность
обморожения
1012.1 1003.3 -21.7 0.5 53
03 14.01 ЮВ 11-15
{17}
4000 м слаб. снег {метель} 10/8 600 м
[Sc Ac As]
-19.6 -22.9 75 -34 -34 опасность
обморожения
1012.4 1003.6
06 14.01 ЮВ 10-15
{16}
1000 м метель {снег} 10/10 600 м
[Sc]
-19.2 -22.5 75 -33 -33 опасность
обморожения
1011.9 1003.2
09 14.01 ЮВ 13-16
{17}
500 м метель ?/? -19.0 -21.6 80 -34 -34 опасность
обморожения
1012.2 1003.5
12 14.01 ЮВ 13-16
{17}
500 м метель ?/? -18.6 -21.2 80 -33 -33 опасность
обморожения
1011.4 1002.7 -18.3 0.6
15 14.01 ЮВ 10-15
{16}
2000 м снег 10/10 600 м
[Sc]
-17.8 -20.4 80 -31 -31 опасность
обморожения
1011.2 1002.5
18 14.01 В 11-15
{16}
2000 м слаб. снег {метель} 10/10 600 м
[Sc]
-17.1 -19.7 80 -30 -30 по сезону 1010.4 1001.7
21 14.01 В 10-15
{17}
500 м слаб. снег {метель} ?/? -16.2 -18.8 80 -29 -29 по сезону 1009.4 1000.8
00 15.01 ЮВ 10-15
{17}
2000 м слаб. снег {метель} 10/10 600 м
[Sc]
-15.1 -17.8 80 -27 -27 по сезону 1008.4 999.8 -18.7 1 53
03 15.01 ЮВ 10-15
{15}
4000 м слаб. ливневой снег 10/10 600 м
[Cb cap]
-15.0 -17.0 85 -27 -27 по сезону 1007.3 998.7
06 15.01 В 11-15
{15}
2000 м слаб. ливневой снег 10/10 300 м
[Cb cap]
-14.2 -16.2 85 -26 -26 тепло 1006.7 998.2
09 15.01 В 10-15
{15}
2000 м слаб. ливневой снег 10/10 300 м
[Cb cap]
-14.0 -16.0 85 -26 -26 тепло 1002.0 993.6
12 15.01 В 10-15
{15}
2000 м слаб. ливневой снег 10/10 300 м
[Cb cap]
-14.0 -16.0 85 -26 -26 тепло 1002.0 993.6
15 15.01 В 6
{15}
1000 м слаб. ливневой снег 10/10 300 м
[Cb cap]
-13.6 -14.9 90 -23 -23 тепло 999.9 991.5 -13.6 2
18 15.01 В 5 2000 м слаб. ливневой снег {метель} 10/10 600 м
[Cb cap]
-12.8 -14.8 85 -21 -21 тепло 997.2 988.8
21 15.01 ЮВ 4 4000 м слаб. снег 10/8 600 м
[Sc Ac As]
-12.0 -14.0 85 -19 -19 тепло 995.5 987.1
00 16.01 ЮВ 2 4000 м слаб. снег 10/6 600 м
[Sc Ac As]
-13.1 -15.1 85 -18 -18 тепло 996.5 988.1 -13.6 2 61
03 16.01 З 4 4000 м слаб. снег 10/8 600 м
[Sc Ac As]
-12.5 -15.2 80 -20 -20 тепло 998.5 990.1 -14.0

 

Местоположение метеостанции Норильск (Красноярский край, Россия): широта 69.33 долгота 88.30 высота над уровнем моря 65 м.

В архиве по умолчанию представлена погода в Норильске за последнюю неделю. Архивные данные за месяц целиком и за предыдущие месяцы, начиная с января 2011 года, Вы можете получить, выбрав интересующий диапазон дат из раскрывающегося списка и нажав кнопку "Ввод!".


*Определитесь, кто Вы:
робот инопланетянин человек

Внимание! Время в таблицах - всемирное. Для получения местного времени необходимо прибавить поправку, которая равна 7 ч.

Смотрите также архив погоды в соседних городах и на ближайших метеорологических станциях:

Погода в Потапово (Красноярский край, Россия) (110 км)
Погода в Снежногорске (Красноярский край, Россия) (138 км)
Погода в Крестах Таймырских (Красноярский край, Россия) (181 км)
Погода в Горбиачине (Красноярский край, Россия) (207 км)
Погода в Карауле (Красноярский край, Россия) (215 км)
Погода в Игарке (Красноярский край, Россия) (219 км)
Погода в Светлогорске (Красноярский край, Россия) (265 км)
Погода в Волочанке (Красноярский край, Россия) (297 км)
Погода в Курейке (Красноярский край, Россия) (321 км)
Погода в Советской Речке (Красноярский край, Россия) (336 км)

Пояснения к столбцам:

Ветер - указаны скорость ветра в м/с - средняя за 10 мин, порывы в срок и между сроками (в фигурных скобках) и направление, откуда дует ветер: С - северный, СВ - северо-восточный, В - восточный, ЮВ - юго-восточный, Ю - южный, ЮЗ - юго-западный, З - западный, СЗ - северо-западный.
Видимость - горизонтальная дальность видимости в метрах или километрах. При видимости от 1 до 10 км при отсутствии осадков обычно наблюдается дымка, при ухудшении видимости до 1 км и менее - туман. В сухую погоду видимость может ухудшаться дымом, пылью или мглою.
Явления - указаны атмосферные явления, наблюдавшиеся в срок или в последний час перед сроком; фигурными скобками обозначены явления, наблюдавшиеся между сроками (за 1-3 часа до срока); квадратными скобками обозначены град или гололедные отложения с указанием их диаметра в мм.
Облачность - указаны через наклонную черту общая и нижняя облачность в баллах и высота нижней границы облаков в метрах; квадратными скобками обозначены формы облаков: Ci - перистые, Cs - перисто-слоистые, Cc - перисто-кучевые, Ac - высококучевые, As - высокослоистые, Sc - слоисто-кучевые, Ns - слоисто-дождевые, Cu - кучевые, Cb - кучево-дождевые. Подробнее классификацию облаков см. в Атласе облаков (PDF).
T - Температура воздуха - температура, измеренная на высоте 2 м над землей.
Td - Температура точки росы - температура, при понижении до которой содержащийся в воздухе водяной пар достигнет насыщения.
f - Относительная влажность воздуха - влажноcть воздуха, измеренная на высоте 2 м над землей.
Te - Эффективная температура - температура, которую ощущает одетый по сезону человек в тени. Характеристика душности погоды. При расчете учитывается влияние влажности воздуха и скорости ветра на теплоощущения человека.
Tes - Эффективная температура на солнце - температура, которую ощущает человек, с поправкой на солнечный нагрев. Характеристика знойности погоды. Зависит от высоты солнца над горизонтом, облачности и скорости ветра. Ночью, в пасмурную погоду, а также при ветре 12 м/с и более поправка равна нулю.
P - Атмосферное давление - приведенное к уровню моря атмосферное давление.
Po - Атмосферное давление - измеренное на уровне метеостанции атмосферное давление.
Tmin - Минимальная температура - минимум температуры воздуха на высоте 2 м над землей.
Tmax - Максимальная температура - максимум температуры воздуха на высоте 2 м над землей.
R - Количество осадков - Количество выпавших осадков за период времени, мм. При наведении курсора мыши на число - период времени, за который выпало указанное количество осадков.
R24 - Количество осадков - Количество выпавших осадков за 24 часа, мм.
S - Снежный покров - Высота снежного покрова, см. При наведении курсора мыши на число - состояние снежного покрова и степень покрытия местности в баллах.